TimeCST,TemperatureF,Dew PointF,Humidity,Sea Level PressureIn,VisibilityMPH,Wind Direction,Wind SpeedMPH,Gust SpeedMPH,PrecipitationIn,Events,Conditions,WindDirDegrees,DateUTC
12:52 AM,30.0,23.0,75,30.11,10.0,NW,5.8,-,N/A,,Clear,320,2012-11-26 06:52:00
1:52 AM,28.9,21.9,75,30.14,10.0,NNW,5.8,-,N/A,,Clear,330,2012-11-26 07:52:00
2:52 AM,28.0,19.0,69,30.16,10.0,NW,8.1,-,N/A,,Clear,320,2012-11-26 08:52:00
3:52 AM,26.1,16.0,66,30.18,10.0,NW,9.2,-,N/A,,Clear,320,2012-11-26 09:52:00
4:52 AM,26.1,15.1,63,30.20,10.0,NNW,6.9,-,N/A,,Clear,330,2012-11-26 10:52:00
5:52 AM,26.1,15.1,63,30.21,10.0,NNW,5.8,-,N/A,,Clear,330,2012-11-26 11:52:00
6:52 AM,27.0,15.1,61,30.23,10.0,NNW,4.6,-,N/A,,Clear,330,2012-11-26 12:52:00
7:52 AM,28.0,15.1,58,30.25,10.0,NW,5.8,-,N/A,,Overcast,320,2012-11-26 13:52:00
8:52 AM,28.9,16.0,58,30.27,10.0,NW,4.6,-,N/A,,Partly Cloudy,320,2012-11-26 14:52:00
9:52 AM,32.0,15.1,50,30.28,10.0,Calm,Calm,-,N/A,,Clear,0,2012-11-26 15:52:00
10:52 AM,34.0,16.0,48,30.28,10.0,NW,4.6,-,N/A,,Clear,310,2012-11-26 16:52:00
11:52 AM,35.1,17.1,48,30.28,10.0,NNW,10.4,-,N/A,,Partly Cloudy,330,2012-11-26 17:52:00
12:52 PM,35.1,18.0,50,30.28,10.0,NNW,8.1,-,N/A,,Scattered Clouds,330,2012-11-26 18:52:00
1:52 PM,34.0,18.0,52,30.29,10.0,NW,9.2,-,N/A,,Overcast,310,2012-11-26 19:52:00
2:52 PM,34.0,19.0,54,30.30,10.0,North,6.9,-,N/A,,Overcast,350,2012-11-26 20:52:00
3:52 PM,33.1,19.0,56,30.29,10.0,North,3.5,-,N/A,,Mostly Cloudy,350,2012-11-26 21:52:00
4:52 PM,32.0,19.9,61,30.31,10.0,NNW,6.9,-,N/A,,Scattered Clouds,330,2012-11-26 22:52:00
5:52 PM,32.0,21.0,64,30.34,10.0,NNW,5.8,-,N/A,,Mostly Cloudy,330,2012-11-26 23:52:00
6:52 PM,30.9,19.9,64,30.36,10.0,NNW,9.2,-,N/A,,Overcast,340,2012-11-27 00:52:00
7:52 PM,30.0,18.0,61,30.37,10.0,North,10.4,-,N/A,,Mostly Cloudy,350,2012-11-27 01:52:00
8:52 PM,27.0,12.0,53,30.39,10.0,North,9.2,-,N/A,,Clear,350,2012-11-27 02:52:00
9:52 PM,24.1,10.9,57,30.40,10.0,NNW,5.8,-,N/A,,Clear,330,2012-11-27 03:52:00
10:52 PM,23.0,10.9,60,30.42,10.0,NNW,4.6,-,N/A,,Clear,330,2012-11-27 04:52:00
11:52 PM,21.9,10.0,60,30.41,10.0,NW,4.6,-,N/A,,Clear,310,2012-11-27 05:52:00